| time (UTC) | temp F | wind direction | speed knots | gust knots | rain 1hr in | rain 24hr in | rain mn in | humidity % | barometer mb |
| 20260510041416 | 49 | 202 | 0.9 | 4.3 | 0.00 | 0.00 | 0.00 | 86 | 1011.8 |
| 20260510040917 | 49 | 202 | 1.7 | 4.3 | 0.00 | 0.00 | 0.00 | 86 | 1011.8 |
| 20260510040417 | 50 | 202 | 0.9 | 4.3 | 0.00 | 0.00 | 0.00 | 85 | 1011.9 |
| 20260510035916 | 50 | 202 | 1.7 | 7.0 | 0.00 | 0.00 | 0.00 | 86 | 1011.9 |
| 20260510035417 | 51 | 194 | 1.7 | 7.8 | 0.00 | 0.00 | 0.00 | 86 | 1011.9 |
| 20260510034916 | 51 | 166 | 5.2 | 7.8 | 0.00 | 0.00 | 0.00 | 86 | 1012.1 |
| 20260510034416 | 51 | 141 | 4.3 | 7.0 | 0.00 | 0.00 | 0.00 | 86 | 1011.8 |
| 20260510033916 | 51 | 210 | 1.7 | 2.6 | 0.00 | 0.00 | 0.00 | 85 | 1011.8 |
| 20260510033416 | 51 | 210 | 0.9 | 1.7 | 0.00 | 0.00 | 0.00 | 85 | 1011.8 |
| 20260510032916 | 52 | 210 | 0.0 | 2.6 | 0.00 | 0.00 | 0.00 | 85 | 1011.5 |
| 20260510032416 | 52 | 210 | 0.9 | 2.6 | 0.00 | 0.00 | 0.00 | 85 | 1011.5 |
| 20260510031916 | 52 | 210 | 1.7 | 2.6 | 0.00 | 0.00 | 0.00 | 84 | 1011.4 |
| 20260510031416 | 52 | 210 | 0.9 | 4.3 | 0.00 | 0.00 | 0.00 | 85 | 1011.5 |
| 20260510030916 | 52 | 210 | 3.5 | 4.3 | 0.00 | 0.00 | 0.00 | 84 | 1011.4 |
| 20260510030417 | 53 | 229 | 1.7 | 4.3 | 0.00 | 0.00 | 0.00 | 84 | 1011.4 |
| 20260510025916 | 53 | 332 | 1.7 | 4.3 | 0.00 | 0.00 | 0.00 | 84 | 1011.0 |
| 20260510025418 | 53 | 321 | 1.7 | 4.3 | 0.00 | 0.00 | 0.00 | 83 | 1011.0 |
| 20260510024917 | 54 | 359 | 1.7 | 5.2 | 0.00 | 0.00 | 0.00 | 83 | 1011.0 |
| 20260510024416 | 54 | 73 | 3.5 | 5.2 | 0.00 | 0.00 | 0.00 | 84 | 1011.1 |
| 20260510023916 | 54 | 84 | 4.3 | 4.3 | 0.00 | 0.00 | 0.00 | 84 | 1011.1 |
| 20260510023416 | 54 | 76 | 3.5 | 4.3 | 0.00 | 0.00 | 0.00 | 82 | 1010.9 |
| 20260510022918 | 54 | 54 | 2.6 | 2.6 | 0.00 | 0.00 | 0.00 | 81 | 1010.9 |
| 20260509141414 | 64 | 203 | 2.6 | 8.7 | 0.00 | 0.00 | 0.00 | 64 | 1010.6 |
| 20260509140914 | 64 | 180 | 5.2 | 10.4 | 0.00 | 0.00 | 0.00 | 67 | 1010.6 |
| 20260509140414 | 63 | 219 | 7.0 | 10.4 | 0.00 | 0.00 | 0.00 | 69 | 1010.6 |
| 20260509135914 | 63 | 212 | 4.3 | 10.4 | 0.00 | 0.00 | 0.00 | 70 | 1010.6 |
| 20260509135414 | 62 | 215 | 7.0 | 10.4 | 0.00 | 0.00 | 0.00 | 71 | 1010.9 |
| 20260509134914 | 61 | 197 | 4.3 | 7.0 | 0.00 | 0.00 | 0.00 | 73 | 1010.9 |
| 20260509134414 | 61 | 161 | 1.7 | 7.0 | 0.00 | 0.00 | 0.00 | 72 | 1011.0 |
| 20260509133914 | 60 | 195 | 4.3 | 10.4 | 0.00 | 0.00 | 0.00 | 73 | 1011.1 |
| 20260509133414 | 60 | 201 | 5.2 | 10.4 | 0.00 | 0.00 | 0.00 | 76 | 1011.1 |
| 20260509132914 | 59 | 212 | 4.3 | 7.8 | 0.00 | 0.00 | 0.00 | 75 | 1011.1 |
| 20260509132414 | 58 | 216 | 3.5 | 5.2 | 0.00 | 0.00 | 0.00 | 76 | 1011.1 |
| 20260509131915 | 58 | 220 | 0.9 | 2.6 | 0.00 | 0.00 | 0.00 | 76 | 1011.1 |
| 20260509131414 | 58 | 198 | 0.9 | 4.3 | 0.00 | 0.00 | 0.00 | 77 | 1011.1 |
| 20260509130914 | 57 | 190 | 1.7 | 5.2 | 0.00 | 0.00 | 0.00 | 77 | 1011.1 |
| 20260509130414 | 57 | 176 | 1.7 | 5.2 | 0.00 | 0.00 | 0.00 | 79 | 1011.1 |
| 20260509125914 | 56 | 167 | 0.9 | 5.2 | 0.00 | 0.00 | 0.00 | 79 | 1011.2 |
| 20260509125414 | 56 | 182 | 2.6 | 5.2 | 0.00 | 0.00 | 0.00 | 81 | 1011.1 |
| 20260509124914 | 55 | 184 | 1.7 | 5.2 | 0.00 | 0.00 | 0.00 | 80 | 1011.2 |
| 20260509124414 | 55 | 177 | 2.6 | 5.2 | 0.00 | 0.00 | 0.00 | 82 | 1011.3 |
| 20260509123914 | 55 | 191 | 2.6 | 5.2 | 0.00 | 0.00 | 0.00 | 82 | 1011.3 |
| 20260509123415 | 54 | 182 | 1.7 | 4.3 | 0.00 | 0.00 | 0.00 | 85 | 1011.3 |
| 20260509122914 | 54 | 189 | 1.7 | 5.2 | 0.00 | 0.00 | 0.00 | 87 | 1011.3 |
| 20260509122414 | 54 | 180 | 3.5 | 5.2 | 0.00 | 0.00 | 0.00 | 89 | 1011.3 |
| 20260509121914 | 54 | 207 | 2.6 | 4.3 | 0.00 | 0.00 | 0.00 | 90 | 1011.4 |
| 20260509121414 | 53 | 172 | 1.7 | 4.3 | 0.00 | 0.00 | 0.00 | 90 | 1011.4 |
| 20260509120914 | 53 | 172 | 1.7 | 4.3 | 0.00 | 0.00 | 0.00 | 90 | 1011.4 |
| 20260509120414 | 52 | 170 | 1.7 | 4.3 | 0.00 | 0.00 | 0.00 | 90 | 1011.4 |
| 20260509115913 | 52 | 161 | 0.9 | 2.6 | 0.00 | 0.00 | 0.00 | 90 | 1011.4 |
| 20260509115414 | 51 | 161 | 1.7 | 2.6 | 0.00 | 0.00 | 0.00 | 90 | 1011.3 |
| 20260509114914 | 51 | 185 | 0.9 | 2.6 | 0.00 | 0.00 | 0.00 | 90 | 1011.3 |
| 20260509114414 | 51 | 185 | 1.7 | 2.6 | 0.00 | 0.00 | 0.00 | 90 | 1011.4 |
| 20260509113914 | 50 | 185 | 1.7 | 2.6 | 0.00 | 0.00 | 0.00 | 90 | 1011.2 |
| 20260509113414 | 50 | 130 | 1.7 | 2.6 | 0.00 | 0.00 | 0.00 | 90 | 1011.3 |
| 20260509112914 | 50 | 175 | 0.9 | 2.6 | 0.00 | 0.00 | 0.00 | 90 | 1011.3 |
| 20260509112413 | 49 | 176 | 1.7 | 2.6 | 0.00 | 0.00 | 0.00 | 90 | 1011.3 |
| 20260509111915 | 49 | 175 | 0.0 | 2.6 | 0.00 | 0.00 | 0.00 | 90 | 1011.3 |
| 20260509111413 | 49 | 176 | 1.7 | 2.6 | 0.00 | 0.00 | 0.00 | 90 | 1011.3 |
| 20260509110914 | 49 | 161 | 0.9 | 2.6 | 0.00 | 0.00 | 0.00 | 90 | 1011.2 |
| 20260509110414 | 49 | 181 | 1.7 | 2.6 | 0.00 | 0.00 | 0.00 | 90 | 1011.2 |
| 20260509105914 | 49 | 157 | 1.7 | 2.6 | 0.00 | 0.00 | 0.00 | 90 | 1011.2 |
| 20260509105414 | 48 | 177 | 0.9 | 2.6 | 0.00 | 0.00 | 0.00 | 90 | 1011.0 |
| 20260509104914 | 48 | 177 | 1.7 | 4.3 | 0.00 | 0.00 | 0.00 | 90 | 1011.0 |
| 20260509104414 | 48 | 147 | 1.7 | 4.3 | 0.00 | 0.00 | 0.00 | 90 | 1011.1 |
| 20260509103913 | 48 | 145 | 2.6 | 4.3 | 0.00 | 0.00 | 0.00 | 90 | 1011.3 |
| 20260509103414 | 48 | 136 | 2.6 | 4.3 | 0.00 | 0.00 | 0.00 | 90 | 1011.3 |
| 20260509102914 | 47 | 128 | 2.6 | 2.6 | 0.00 | 0.00 | 0.00 | 90 | 1011.2 |
| 20260509102413 | 47 | 204 | 0.0 | 0.9 | 0.00 | 0.00 | 0.00 | 90 | 1011.3 |
| 20260509101914 | 47 | 204 | 0.0 | 1.7 | 0.00 | 0.00 | 0.00 | 90 | 1011.3 |
| 20260509101414 | 47 | 204 | 0.9 | 1.7 | 0.00 | 0.00 | 0.00 | 90 | 1011.3 |
| 20260509100913 | 47 | 204 | 0.0 | 2.6 | 0.00 | 0.00 | 0.00 | 90 | 1011.3 |
| 20260509100414 | 47 | 204 | 1.7 | 2.6 | 0.00 | 0.00 | 0.00 | 90 | 1011.3 |
| 20260509095914 | 47 | 179 | 2.6 | 2.6 | 0.00 | 0.00 | 0.00 | 90 | 1011.3 |
| 20260509095413 | 47 | 179 | 0.9 | 4.3 | 0.00 | 0.00 | 0.00 | 89 | 1011.3 |
| 20260509094914 | 47 | 179 | 0.9 | 4.3 | 0.00 | 0.00 | 0.00 | 89 | 1011.3 |
| 20260509094414 | 47 | 179 | 0.9 | 4.3 | 0.00 | 0.00 | 0.00 | 89 | 1011.3 |
| 20260509093913 | 47 | 179 | 1.7 | 2.6 | 0.00 | 0.00 | 0.00 | 89 | 1011.4 |
| 20260509093414 | 47 | 179 | 0.9 | 2.6 | 0.00 | 0.00 | 0.00 | 89 | 1011.4 |
| 20260509092913 | 47 | 179 | 0.0 | 0.9 | 0.00 | 0.00 | 0.00 | 89 | 1011.5 |
| 20260509092413 | 47 | 179 | 0.0 | 0.9 | 0.00 | 0.00 | 0.00 | 89 | 1011.5 |
| 20260509091914 | 47 | 179 | 0.9 | 0.9 | 0.00 | 0.00 | 0.00 | 89 | 1011.6 |
| 20260509091414 | 47 | 179 | 0.0 | 0.9 | 0.00 | 0.00 | 0.00 | 88 | 1011.7 |
| 20260509090913 | 48 | 179 | 0.0 | 0.9 | 0.00 | 0.00 | 0.00 | 88 | 1011.6 |
| 20260509090414 | 48 | 179 | 0.0 | 0.0 | 0.00 | 0.00 | 0.00 | 88 | 1011.5 |
| 20260509085913 | 48 | 179 | 0.0 | 0.0 | 0.00 | 0.00 | 0.00 | 87 | 1011.5 |
| 20260509085413 | 48 | 179 | 0.0 | 0.0 | 0.00 | 0.00 | 0.00 | 87 | 1011.4 |
| 20260509084914 | 48 | 179 | 0.0 | 0.0 | 0.00 | 0.00 | 0.00 | 88 | 1011.5 |
| 20260509084414 | 48 | 179 | 0.0 | 2.6 | 0.00 | 0.00 | 0.00 | 88 | 1011.5 |
| 20260509083913 | 48 | 179 | 0.0 | 2.6 | 0.00 | 0.00 | 0.00 | 88 | 1011.5 |
| 20260509083414 | 48 | 184 | 1.7 | 4.3 | 0.00 | 0.00 | 0.00 | 87 | 1011.6 |
| 20260509082914 | 48 | 184 | 1.7 | 4.3 | 0.00 | 0.00 | 0.00 | 87 | 1011.6 |
| 20260509082413 | 48 | 149 | 1.7 | 2.6 | 0.00 | 0.00 | 0.00 | 87 | 1011.6 |
| 20260509081913 | 48 | 149 | 1.7 | 2.6 | 0.00 | 0.00 | 0.00 | 88 | 1011.6 |
| 20260509081414 | 48 | 149 | 1.7 | 2.6 | 0.00 | 0.00 | 0.00 | 88 | 1011.6 |
| 20260509080914 | 48 | 149 | 1.7 | 2.6 | 0.00 | 0.00 | 0.00 | 88 | 1011.6 |
| 20260509080413 | 48 | 149 | 1.7 | 4.3 | 0.00 | 0.00 | 0.00 | 88 | 1011.5 |
| 20260509075913 | 48 | 176 | 1.7 | 4.3 | 0.00 | 0.00 | 0.00 | 88 | 1011.6 |
| 20260509075413 | 48 | 179 | 0.9 | 4.3 | 0.00 | 0.00 | 0.00 | 88 | 1011.6 |
| 20260509074913 | 48 | 0 | 0.0 | 0.0 | 0.00 | 0.00 | 0.00 | 87 | 1011.7 |
| 20260509074413 | 48 | 0 | 0.0 | 0.0 | 0.00 | 0.00 | 0.00 | 87 | 1011.7 |
| 20260509073914 | 48 | 0 | 0.0 | 0.0 | 0.00 | 0.00 | 0.00 | 87 | 1011.8 |
| 20260509073413 | 48 | 0 | 0.0 | 0.0 | 0.00 | 0.00 | 0.00 | 87 | 1011.9 |
| 20260509072913 | 48 | 0 | 0.0 | 0.0 | 0.00 | 0.00 | 0.00 | 87 | 1011.9 |
| 20260509072413 | 48 | 0 | 0.0 | 0.0 | 0.00 | 0.00 | 0.00 | 87 | 1012.0 |
| 20260509071914 | 48 | 0 | 0.0 | 0.0 | 0.00 | 0.00 | 0.00 | 87 | 1011.9 |
| 20260509071413 | 48 | 0 | 0.0 | 0.0 | 0.00 | 0.00 | 0.00 | 88 | 1012.1 |
| 20260509070913 | 48 | 0 | 0.0 | 2.6 | 0.00 | 0.00 | 0.00 | 87 | 1012.3 |
| 20260509070414 | 48 | 8 | 0.9 | 2.6 | 0.00 | 0.00 | 0.00 | 87 | 1012.2 |
| 20260509065913 | 47 | 175 | 2.6 | 2.6 | 0.00 | 0.00 | 0.00 | 88 | 1012.1 |
| 20260509065413 | 47 | 175 | 2.6 | 4.3 | 0.00 | 0.00 | 0.00 | 88 | 1012.1 |
| 20260509064913 | 47 | 174 | 1.7 | 5.2 | 0.00 | 0.00 | 0.00 | 88 | 1012.1 |
| 20260509064413 | 47 | 146 | 2.6 | 7.8 | 0.00 | 0.00 | 0.00 | 92 | 1012.3 |
| 20260509063913 | 46 | 182 | 3.5 | 10.4 | 0.00 | 0.00 | 0.00 | 88 | 1012.3 |
| 20260509063413 | 46 | 193 | 4.3 | 10.4 | 0.00 | 0.00 | 0.00 | 88 | 1012.6 |
| 20260509062913 | 46 | 193 | 3.5 | 7.8 | 0.00 | 0.00 | 0.00 | 88 | 1012.6 |
| 20260509062413 | 46 | 191 | 4.3 | 6.1 | 0.00 | 0.00 | 0.00 | 88 | 1012.6 |
| 20260509061912 | 46 | 185 | 1.7 | 5.2 | 0.00 | 0.00 | 0.00 | 88 | 1012.6 |
| 20260509061413 | 45 | 177 | 1.7 | 5.2 | 0.00 | 0.00 | 0.00 | 88 | 1012.5 |
| 20260509060912 | 45 | 171 | 3.5 | 5.2 | 0.00 | 0.00 | 0.00 | 88 | 1012.5 |
| 20260509060413 | 45 | 169 | 3.5 | 5.2 | 0.00 | 0.00 | 0.00 | 87 | 1012.4 |
| 20260509055913 | 44 | 184 | 2.6 | 4.3 | 0.00 | 0.00 | 0.00 | 87 | 1012.5 |
| 20260509055413 | 44 | 183 | 1.7 | 2.6 | 0.00 | 0.00 | 0.00 | 87 | 1012.6 |
| 20260509054913 | 44 | 200 | 1.7 | 2.6 | 0.00 | 0.00 | 0.00 | 87 | 1012.7 |
| 20260509054413 | 43 | 281 | 0.9 | 2.6 | 0.00 | 0.00 | 0.00 | 87 | 1012.7 |
| 20260509053913 | 43 | 281 | 0.9 | 2.6 | 0.00 | 0.00 | 0.00 | 85 | 1012.7 |
| 20260509053413 | 44 | 281 | 1.7 | 2.6 | 0.00 | 0.00 | 0.00 | 85 | 1012.8 |
| 20260509052913 | 44 | 261 | 2.6 | 4.3 | 0.00 | 0.00 | 0.00 | 85 | 1012.8 |
| 20260509052413 | 44 | 214 | 2.6 | 5.2 | 0.00 | 0.00 | 0.00 | 85 | 1012.8 |
| 20260509051913 | 44 | 214 | 4.3 | 5.2 | 0.00 | 0.00 | 0.00 | 84 | 1012.7 |
| 20260509051413 | 45 | 214 | 4.3 | 6.1 | 0.00 | 0.00 | 0.00 | 84 | 1012.7 |
| 20260509050913 | 45 | 214 | 5.2 | 6.1 | 0.00 | 0.00 | 0.00 | 83 | 1012.7 |
| 20260509050413 | 45 | 214 | 5.2 | 6.1 | 0.00 | 0.00 | 0.00 | 82 | 1012.7 |
| 20260509045913 | 45 | 210 | 5.2 | 6.1 | 0.00 | 0.00 | 0.00 | 82 | 1012.7 |
| 20260509045413 | 45 | 211 | 4.3 | 7.0 | 0.00 | 0.00 | 0.00 | 82 | 1012.6 |
| 20260509044912 | 46 | 200 | 5.2 | 7.0 | 0.00 | 0.00 | 0.00 | 81 | 1012.7 |
| 20260509044413 | 46 | 199 | 5.2 | 7.0 | 0.00 | 0.00 | 0.00 | 81 | 1012.7 |
| 20260509043913 | 46 | 202 | 5.2 | 7.0 | 0.00 | 0.00 | 0.00 | 80 | 1012.7 |
| 20260509043413 | 47 | 203 | 5.2 | 6.1 | 0.00 | 0.00 | 0.00 | 80 | 1012.7 |
| 20260509042913 | 47 | 202 | 4.3 | 6.1 | 0.00 | 0.00 | 0.00 | 80 | 1012.7 |
| 20260509042414 | 47 | 203 | 4.3 | 5.2 | 0.00 | 0.00 | 0.00 | 80 | 1012.7 |
| 20260509041912 | 47 | 202 | 2.6 | 2.6 | 0.00 | 0.00 | 0.00 | 79 | 1012.6 |